COSMOS 1275 DEB, 42148

Orbit data source: Space-Track

COSMOS 1275 DEB, 42148 is space debris in LEO originally from a launch on Thu, 04 Jun 1981 UTC launched from the Plesetsk Missile And Space Complex (PKMTR). Debris objects in space refer to the collection of defunct objects orbiting the Earth. Examples of debris include non-operational satellites, rocket bodies, and fragments generated from explosions, collisions, or faulty payload assembly.

Loading next visibility...
Identifier
42148, 1981-053RL
Orbit
LEO
Country
Flag of CISCIS
Related business
Manufacturer
Unknown
Mission
Spacecraft
Bus & Motor
Unknown
Mass
Unknown
Launch date (UTC)
1981-06-04 (44 years ago)
Launch vehicle
Unknown
Launch site
Plesetsk Missile And Space Complex (PKMTR)
Object type
Payload
Rocket body
Debris
Shape & HBR
Unknown shape, 0.1 m
Radar Cross Section
Small (<0.1 m²)

Expand to show TLE details & history
Last TLE update: 1 day ago

TLE from 1 day ago
0 COSMOS 1275 DEB
1 42148U 81053RL  25285.98387530  .00001608  00000-0  13700-2 0  9999
2 42148  83.0967  18.5239 0079785 159.2218 201.2219 13.85180555599489
Epoch: 2025-10-12T23:36Z
TLE epoch observation values (Epoch: 2025-10-12T23:36:46.825Z)
Latitude
-0.00008°
Longitude
2.53561°
Altitude
1,003.028 km
Speed
7.323 km/s
True Right ascension
01h 14m 05s
True Declination
0° 00' 00"
Sunlit
Object was in full shadow at epoch
Visualization orbit readout
Latitude
Unknown
Longitude
Unknown
Altitude
Unknown
Speed
Unknown
Apparent Right ascension
Unknown
Apparent Declination
Unknown
Sunlit
N/A
Visualization observer readout
Local Sidereal Time
02:35:18
Azimuth
Unknown
Elevation
Unknown
Doppler factor
Unknown
Orbital elements
Apogee altitude
1,001.107 km
Perigee altitude
884.289 km
Semi-major axis
7,320.835 km
Eccentricity
0.00798
Inclination
83.0967°
RAAN
18.5239°
Arg. of periapsis
159.2218°
True anomaly
200.894°
Mean anomaly
201.2219°
Eccentric anomaly
201.05765°
Mean motion
3.46499 °/min
Orbital period
103.9 mins
BSTAR
0.00137
Loading maneuver chart data...
Computing Atmospheric mass density...
Loading historical data...
Loading historical data...
Loading historical data...
Loading historical data...
Loading historical data...
Loading historical data...
Loading historical data...

Documentation

Showing up to 5 results
|